軌道要素
Epoch 2019 July 16.0 TT = JDT 2458680.5
T 2019 July 26.52568 TT Rudenko
q 1.4263969 (2000.0) P Q
z +0.0257937 Peri. 237.80144 -0.16009678 +0.07117690
+/-0.0000000 Node 278.36848 +0.80750013 -0.56420356
e 0.9632080 Incl. 84.34157 -0.56772578 -0.82256197
From 185 observations 2018 Dec. 18-2020 June 16, mean residual 0".4.
|